Time,TemperatureF,DewpointF,PressureIn,WindDirection,WindDirectionDegrees,WindSpeedMPH,WindSpeedGustMPH,Humidity,HourlyPrecipIn,Conditions,Clouds,dailyrainin,SoftwareType,DateUTC
2013-01-15 00:01:00,48.3,47.8,30.23,NW,309,0.2,1.1,98,0.10,RA,,0.01,WeatherDisplay:10.37,2013-01-15 05:01:00,
2013-01-15 00:03:00,48.3,47.8,30.23,NW,309,0.0,1.1,98,0.10,RA,,0.02,WeatherDisplay:10.37,2013-01-15 05:03:00,
2013-01-15 00:04:00,48.3,47.8,30.24,NW,309,0.0,0.0,98,0.10,RA,,0.02,WeatherDisplay:10.37,2013-01-15 05:04:00,
2013-01-15 00:09:00,48.2,47.7,30.24,NNW,335,0.0,1.0,98,0.09,RA,,0.03,WeatherDisplay:10.37,2013-01-15 05:09:00,
2013-01-15 00:13:00,48.1,47.6,30.23,NNW,340,0.0,0.0,98,0.02,RA,,0.04,WeatherDisplay:10.37,2013-01-15 05:13:00,
2013-01-15 00:19:00,47.9,47.4,30.24,NNE,22,0.4,1.1,98,0.10,RA,,0.06,WeatherDisplay:10.37,2013-01-15 05:19:00,
2013-01-15 00:25:00,47.7,47.2,30.23,NNE,19,0.0,0.0,98,0.08,RA,,0.06,WeatherDisplay:10.37,2013-01-15 05:25:00,
2013-01-15 00:30:00,47.5,47.0,30.23,NNE,19,0.0,0.0,98,0.10,RA,,0.08,WeatherDisplay:10.37,2013-01-15 05:30:00,
2013-01-15 00:35:00,47.3,46.8,30.22,NNE,18,0.0,0.0,98,0.09,RA,,0.08,WeatherDisplay:10.37,2013-01-15 05:35:00,
2013-01-15 00:40:00,47.3,46.8,30.22,WSW,242,0.0,0.0,98,0.10,RA,,0.09,WeatherDisplay:10.37,2013-01-15 05:40:00,
2013-01-15 00:45:00,47.3,46.8,30.22,WSW,241,0.0,1.0,98,0.10,RA,,0.09,WeatherDisplay:10.37,2013-01-15 05:45:00,
2013-01-15 00:50:00,47.3,46.8,30.22,WSW,242,0.0,0.0,98,0.11,RA,,0.10,WeatherDisplay:10.37,2013-01-15 05:50:00,
2013-01-15 00:56:00,47.2,46.7,30.22,WSW,242,0.0,0.0,98,0.12,RA,,0.11,WeatherDisplay:10.37,2013-01-15 05:56:00,
2013-01-15 01:01:00,47.3,46.8,30.22,WSW,242,0.0,0.0,98,0.10,-RA,,0.11,WeatherDisplay:10.37,2013-01-15 06:01:00,
2013-01-15 01:06:00,47.3,46.8,30.21,WSW,242,0.0,0.0,98,0.10,-RA,,0.12,WeatherDisplay:10.37,2013-01-15 06:06:00,
2013-01-15 01:11:00,47.3,46.8,30.21,WSW,242,0.0,0.0,98,0.09,-RA,,0.12,WeatherDisplay:10.37,2013-01-15 06:11:00,
2013-01-15 01:16:00,47.2,46.7,30.21,WSW,242,0.0,0.0,98,0.07,-RA,,0.13,WeatherDisplay:10.37,2013-01-15 06:16:00,
2013-01-15 01:21:00,47.2,46.7,30.21,WSW,242,0.0,0.0,98,0.07,-RA,,0.13,WeatherDisplay:10.37,2013-01-15 06:21:00,
2013-01-15 01:27:00,47.2,46.7,30.21,WSW,242,0.0,1.0,98,0.06,-RA,,0.13,WeatherDisplay:10.37,2013-01-15 06:27:00,
2013-01-15 01:32:00,47.1,46.6,30.22,WSW,242,0.0,0.0,98,0.06,-RA,,0.15,WeatherDisplay:10.37,2013-01-15 06:32:00,
2013-01-15 01:37:00,47.2,46.7,30.22,WSW,242,0.0,0.0,98,0.08,-RA,,0.16,WeatherDisplay:10.37,2013-01-15 06:37:00,
2013-01-15 01:42:00,47.2,46.7,30.22,WSW,242,0.0,0.0,98,0.09,-RA,,0.18,WeatherDisplay:10.37,2013-01-15 06:42:00,
2013-01-15 01:47:00,47.1,46.6,30.22,WSW,240,0.0,0.0,98,0.11,-RA,,0.20,WeatherDisplay:10.37,2013-01-15 06:47:00,
2013-01-15 01:52:00,47.1,46.6,30.22,WSW,240,0.0,0.0,98,0.11,-RA,,0.22,WeatherDisplay:10.37,2013-01-15 06:52:00,
2013-01-15 01:57:00,47.0,46.5,30.22,WSW,242,0.0,1.1,98,0.11,-RA,,0.23,WeatherDisplay:10.37,2013-01-15 06:57:00,
2013-01-15 02:02:00,46.7,46.2,30.22,WSW,242,0.0,0.0,98,0.12,-RA,,0.23,WeatherDisplay:10.37,2013-01-15 07:02:00,
2013-01-15 02:08:00,46.5,46.0,30.21,WSW,242,0.0,0.0,98,0.12,-RA,,0.24,WeatherDisplay:10.37,2013-01-15 07:08:00,
2013-01-15 02:13:00,46.4,45.9,30.21,WSW,241,0.0,0.0,98,0.13,-RA,,0.25,WeatherDisplay:10.37,2013-01-15 07:13:00,
2013-01-15 02:18:00,46.4,45.9,30.21,WSW,240,0.0,1.1,98,0.12,RA,,0.25,WeatherDisplay:10.37,2013-01-15 07:18:00,
2013-01-15 02:23:00,46.4,45.9,30.21,WSW,240,0.1,1.1,98,0.13,RA,,0.26,WeatherDisplay:10.37,2013-01-15 07:23:00,
2013-01-15 02:28:00,46.4,45.9,30.21,WSW,240,0.0,0.0,98,0.14,RA,,0.27,WeatherDisplay:10.37,2013-01-15 07:28:00,
2013-01-15 02:33:00,46.4,45.9,30.21,WSW,240,0.0,0.0,98,0.13,RA,,0.28,WeatherDisplay:10.37,2013-01-15 07:33:00,
2013-01-15 02:38:00,46.4,45.9,30.21,WSW,240,0.0,0.0,98,0.12,RA,,0.29,WeatherDisplay:10.37,2013-01-15 07:38:00,
2013-01-15 02:43:00,46.3,45.8,30.20,WSW,240,0.0,0.0,98,0.12,RA,,0.30,WeatherDisplay:10.37,2013-01-15 07:43:00,
2013-01-15 02:48:00,46.3,45.8,30.20,WSW,240,0.0,0.0,98,0.11,RA,,0.31,WeatherDisplay:10.37,2013-01-15 07:48:00,
2013-01-15 02:53:00,46.2,45.7,30.20,WSW,240,0.0,0.0,98,0.09,RA,,0.31,WeatherDisplay:10.37,2013-01-15 07:53:00,
2013-01-15 02:58:00,46.1,45.6,30.20,WSW,240,0.0,0.0,98,0.09,RA,,0.32,WeatherDisplay:10.37,2013-01-15 07:58:00,
2013-01-15 03:03:00,46.0,45.5,30.20,SE,129,0.0,0.0,98,0.09,RA,,0.32,WeatherDisplay:10.37,2013-01-15 08:03:00,
2013-01-15 03:08:00,45.9,45.4,30.20,SE,130,0.0,0.0,98,0.09,-RA,,0.33,WeatherDisplay:10.37,2013-01-15 08:08:00,
2013-01-15 03:13:00,45.8,45.3,30.20,SE,146,0.0,1.1,98,0.08,-RA,,0.33,WeatherDisplay:10.37,2013-01-15 08:13:00,
2013-01-15 03:18:00,45.6,45.1,30.20,SE,146,0.0,0.0,98,0.09,-RA,,0.34,WeatherDisplay:10.37,2013-01-15 08:18:00,
2013-01-15 03:23:00,45.5,45.0,30.20,SE,146,0.0,0.0,98,0.09,-RA,,0.35,WeatherDisplay:10.37,2013-01-15 08:23:00,
2013-01-15 03:28:00,45.3,44.8,30.20,SE,134,0.0,0.0,98,0.01,-RA,,0.36,WeatherDisplay:10.37,2013-01-15 08:28:00,
2013-01-15 03:34:00,45.0,44.2,30.20,East,88,0.0,0.0,97,0.08,-RA,,0.36,WeatherDisplay:10.37,2013-01-15 08:34:00,
2013-01-15 03:39:00,44.9,44.1,30.20,East,91,0.0,1.1,97,0.08,-RA,,0.37,WeatherDisplay:10.37,2013-01-15 08:39:00,
2013-01-15 03:44:00,44.8,44.0,30.20,East,80,0.0,0.0,97,0.08,-RA,,0.38,WeatherDisplay:10.37,2013-01-15 08:44:00,
2013-01-15 03:49:00,44.8,44.3,30.19,East,88,0.0,0.0,98,0.07,-RA,,0.38,WeatherDisplay:10.37,2013-01-15 08:49:00,
2013-01-15 03:54:00,44.7,43.9,30.18,East,79,0.3,1.1,97,0.07,-RA,,0.39,WeatherDisplay:10.37,2013-01-15 08:54:00,
2013-01-15 03:59:00,44.5,43.7,30.18,East,79,0.8,3.0,97,0.07,-RA,,0.39,WeatherDisplay:10.37,2013-01-15 08:59:00,
2013-01-15 04:04:00,44.4,43.6,30.18,NE,53,0.2,2.0,97,0.07,-RA,,0.39,WeatherDisplay:10.37,2013-01-15 09:04:00,
2013-01-15 04:10:00,44.3,43.5,30.18,North,359,0.0,1.1,97,0.07,-RA,,0.40,WeatherDisplay:10.37,2013-01-15 09:10:00,
2013-01-15 04:15:00,44.2,43.4,30.18,North,360,0.0,1.1,97,0.06,-RA,,0.40,WeatherDisplay:10.37,2013-01-15 09:15:00,
2013-01-15 04:20:00,44.1,43.3,30.18,SW,215,0.1,1.0,97,0.05,-RA,,0.40,WeatherDisplay:10.37,2013-01-15 09:20:00,
2013-01-15 04:25:00,44.0,43.2,30.18,ESE,117,0.7,2.0,97,0.05,-RA,,0.40,WeatherDisplay:10.37,2013-01-15 09:25:00,
2013-01-15 04:30:00,43.9,43.1,30.18,ESE,110,0.0,1.1,97,0.05,-RA,,0.41,WeatherDisplay:10.37,2013-01-15 09:30:00,
2013-01-15 04:35:00,43.8,43.0,30.18,NE,45,0.0,0.0,97,0.05,-RA,,0.41,WeatherDisplay:10.37,2013-01-15 09:35:00,
2013-01-15 04:40:00,43.6,42.8,30.17,ENE,77,0.3,2.0,97,0.05,-RA,,0.42,WeatherDisplay:10.37,2013-01-15 09:40:00,
2013-01-15 04:45:00,43.4,42.6,30.17,NNE,30,0.3,1.1,97,0.04,-RA,,0.42,WeatherDisplay:10.37,2013-01-15 09:45:00,
2013-01-15 04:50:00,43.3,42.5,30.17,South,169,0.0,2.3,97,0.04,-RA,,0.42,WeatherDisplay:10.37,2013-01-15 09:50:00,
2013-01-15 04:55:00,43.2,42.4,30.18,ESE,102,0.0,1.1,97,0.04,-RA,,0.43,WeatherDisplay:10.37,2013-01-15 09:55:00,
2013-01-15 05:00:00,43.0,42.2,30.18,WSW,245,0.0,1.1,97,0.04,-RA,,0.43,WeatherDisplay:10.37,2013-01-15 10:00:00,
2013-01-15 05:05:00,43.0,42.2,30.18,SE,141,0.8,2.3,97,0.05,-RA,,0.44,WeatherDisplay:10.37,2013-01-15 10:05:00,
2013-01-15 05:10:00,42.9,42.1,30.18,East,82,0.3,1.1,97,0.04,-RA,,0.44,WeatherDisplay:10.37,2013-01-15 10:10:00,
2013-01-15 05:15:00,42.8,42.0,30.19,SE,136,0.0,1.1,97,0.05,-RA,,0.45,WeatherDisplay:10.37,2013-01-15 10:15:00,
2013-01-15 05:20:00,42.7,41.9,30.19,SE,136,0.0,0.0,97,0.05,-RA,,0.45,WeatherDisplay:10.37,2013-01-15 10:20:00,
2013-01-15 05:25:00,42.8,42.0,30.19,SE,136,0.0,1.0,97,0.06,-RA,,0.46,WeatherDisplay:10.37,2013-01-15 10:25:00,
2013-01-15 05:30:00,42.7,41.9,30.18,SE,125,0.2,1.1,97,0.06,-RA,,0.47,WeatherDisplay:10.37,2013-01-15 10:30:00,
2013-01-15 05:35:00,42.5,41.7,30.18,East,98,0.0,1.1,97,0.06,-RA,,0.47,WeatherDisplay:10.37,2013-01-15 10:35:00,
2013-01-15 05:40:00,42.5,41.7,30.18,SE,139,0.0,2.3,97,0.05,-RA,,0.47,WeatherDisplay:10.37,2013-01-15 10:40:00,
2013-01-15 05:45:00,42.4,41.6,30.19,East,96,1.2,2.3,97,0.06,-RA,,0.48,WeatherDisplay:10.37,2013-01-15 10:45:00,
2013-01-15 05:50:00,42.3,41.2,30.19,North,10,0.0,1.1,96,0.06,-RA,,0.48,WeatherDisplay:10.37,2013-01-15 10:50:00,
2013-01-15 05:55:00,42.3,41.2,30.19,East,100,0.0,1.1,96,0.05,-RA,,0.48,WeatherDisplay:10.37,2013-01-15 10:55:00,
2013-01-15 06:00:00,42.2,41.1,30.19,East,98,0.9,1.1,96,0.05,-RA,,0.48,WeatherDisplay:10.37,2013-01-15 11:00:00,
2013-01-15 06:05:00,42.1,41.0,30.19,NNE,28,0.6,1.1,96,0.05,-RA,,0.49,WeatherDisplay:10.37,2013-01-15 11:05:00,
2013-01-15 06:11:00,42.0,40.9,30.19,East,90,0.0,1.1,96,0.05,-RA,,0.49,WeatherDisplay:10.37,2013-01-15 11:11:00,
2013-01-15 06:16:00,42.0,41.2,30.19,East,95,0.0,1.1,97,0.05,-RA,,0.50,WeatherDisplay:10.37,2013-01-15 11:16:00,
2013-01-15 06:21:00,42.0,41.2,30.19,WNW,285,0.1,1.1,97,0.06,-RA,,0.51,WeatherDisplay:10.37,2013-01-15 11:21:00,
2013-01-15 06:26:00,41.9,41.1,30.19,ENE,75,0.1,1.1,97,0.05,-RA,,0.51,WeatherDisplay:10.37,2013-01-15 11:26:00,
2013-01-15 06:31:00,41.8,40.7,30.19,ESE,118,0.4,1.1,96,0.05,-RA,,0.52,WeatherDisplay:10.37,2013-01-15 11:31:00,
2013-01-15 06:36:00,41.8,41.0,30.20,ENE,65,0.0,1.1,97,0.05,-RA,,0.52,WeatherDisplay:10.37,2013-01-15 11:36:00,
2013-01-15 06:41:00,41.7,40.9,30.20,NNE,29,0.5,1.1,97,0.05,-RA,,0.52,WeatherDisplay:10.37,2013-01-15 11:41:00,
2013-01-15 06:46:00,41.7,40.6,30.21,NE,34,0.0,1.1,96,0.05,-RA,,0.53,WeatherDisplay:10.37,2013-01-15 11:46:00,
2013-01-15 06:51:00,41.7,40.6,30.21,NE,34,0.1,1.1,96,0.06,-RA,,0.54,WeatherDisplay:10.37,2013-01-15 11:51:00,
2013-01-15 06:56:00,41.7,40.9,30.22,NE,34,0.0,0.0,97,0.06,-RA,,0.54,WeatherDisplay:10.37,2013-01-15 11:56:00,
2013-01-15 07:01:00,41.7,40.9,30.21,ESE,108,0.0,0.0,97,0.06,-RA,,0.54,WeatherDisplay:10.37,2013-01-15 12:01:00,
2013-01-15 07:07:00,41.7,40.9,30.22,West,278,1.1,2.3,97,0.06,-RA,,0.55,WeatherDisplay:10.37,2013-01-15 12:07:00,
2013-01-15 07:12:00,41.6,40.8,30.22,West,280,0.0,0.0,97,0.07,-RA,,0.56,WeatherDisplay:10.37,2013-01-15 12:12:00,
2013-01-15 07:17:00,41.6,40.8,30.22,West,278,0.0,1.1,97,0.06,-RA,,0.56,WeatherDisplay:10.37,2013-01-15 12:17:00,
2013-01-15 07:22:00,41.6,40.8,30.22,West,278,0.0,0.0,97,0.06,-RA,,0.57,WeatherDisplay:10.37,2013-01-15 12:22:00,
2013-01-15 07:27:00,41.5,40.7,30.22,West,278,0.0,1.1,97,0.06,-RA,,0.57,WeatherDisplay:10.37,2013-01-15 12:27:00,
2013-01-15 07:32:00,41.6,40.8,30.22,West,278,0.0,0.0,97,0.06,-RA,,0.58,WeatherDisplay:10.37,2013-01-15 12:32:00,
2013-01-15 07:37:00,41.6,40.8,30.23,West,278,0.0,1.1,97,0.07,-RA,,0.59,WeatherDisplay:10.37,2013-01-15 12:37:00,
2013-01-15 07:43:00,41.6,40.8,30.24,WNW,292,0.0,0.0,97,0.02,-RA,,0.60,WeatherDisplay:10.37,2013-01-15 12:43:00,
2013-01-15 07:48:00,41.6,40.8,30.26,WNW,302,0.0,0.0,97,0.01,-RA,,0.60,WeatherDisplay:10.37,2013-01-15 12:48:00,
2013-01-15 07:54:00,41.6,41.1,30.26,WNW,293,0.0,0.0,98,0.07,-RA,,0.61,WeatherDisplay:10.37,2013-01-15 12:54:00,
2013-01-15 07:59:00,41.7,41.2,30.26,WNW,293,0.0,0.0,98,0.07,-RA,,0.61,WeatherDisplay:10.37,2013-01-15 12:59:00,
2013-01-15 08:04:00,41.7,41.2,30.25,West,263,0.6,1.1,98,0.07,-RA,,0.62,WeatherDisplay:10.37,2013-01-15 13:04:00,
2013-01-15 08:10:00,41.7,41.2,30.24,ESE,114,0.0,0.0,98,0.07,-RA,,0.62,WeatherDisplay:10.37,2013-01-15 13:10:00,
2013-01-15 08:15:00,41.7,41.2,30.25,West,280,0.3,1.1,98,0.07,-RA,,0.63,WeatherDisplay:10.37,2013-01-15 13:15:00,
2013-01-15 08:20:00,41.7,41.2,30.25,West,263,0.1,1.1,98,0.08,-RA,,0.64,WeatherDisplay:10.37,2013-01-15 13:20:00,
2013-01-15 08:25:00,41.8,41.3,30.24,ESE,115,0.8,2.3,98,0.07,-RA,,0.64,WeatherDisplay:10.37,2013-01-15 13:25:00,
2013-01-15 08:30:00,41.7,41.2,30.25,SSW,208,0.2,2.3,98,0.07,-RA,,0.65,WeatherDisplay:10.37,2013-01-15 13:30:00,
2013-01-15 08:35:00,41.7,41.2,30.25,West,280,0.5,1.1,98,0.06,-RA,,0.65,WeatherDisplay:10.37,2013-01-15 13:35:00,
2013-01-15 08:40:00,41.8,41.3,30.25,West,280,0.0,0.0,98,0.06,-RA,,0.65,WeatherDisplay:10.37,2013-01-15 13:40:00,
2013-01-15 08:45:00,41.9,41.4,30.26,West,278,0.0,0.0,98,0.05,-RA,,0.65,WeatherDisplay:10.37,2013-01-15 13:45:00,
2013-01-15 08:51:00,41.9,41.4,30.26,West,278,0.0,0.0,98,0.05,-RA,,0.65,WeatherDisplay:10.37,2013-01-15 13:51:00,
2013-01-15 08:56:00,41.9,41.4,30.26,SW,215,0.0,1.1,98,0.05,-RA,,0.66,WeatherDisplay:10.37,2013-01-15 13:56:00,
2013-01-15 09:01:00,41.9,41.4,30.26,West,277,0.0,1.0,98,0.05,-RA,,0.66,WeatherDisplay:10.37,2013-01-15 14:01:00,
2013-01-15 09:06:00,41.9,41.4,30.27,West,276,0.1,1.1,98,0.04,-RA,,0.66,WeatherDisplay:10.37,2013-01-15 14:06:00,
2013-01-15 09:11:00,41.8,41.3,30.27,West,276,0.0,0.0,98,0.04,-RA,,0.67,WeatherDisplay:10.37,2013-01-15 14:11:00,
2013-01-15 09:16:00,41.9,41.4,30.28,West,276,0.0,0.0,98,0.04,-RA,,0.67,WeatherDisplay:10.37,2013-01-15 14:16:00,
2013-01-15 09:21:00,41.9,41.4,30.28,West,276,0.0,1.1,98,0.04,-RA,,0.68,WeatherDisplay:10.37,2013-01-15 14:21:00,
2013-01-15 09:26:00,41.9,41.4,30.28,West,274,0.0,0.0,98,0.05,-RA,,0.69,WeatherDisplay:10.37,2013-01-15 14:26:00,
2013-01-15 09:31:00,41.9,41.4,30.28,West,274,0.0,0.0,98,0.05,-RA,,0.70,WeatherDisplay:10.37,2013-01-15 14:31:00,
2013-01-15 09:36:00,41.9,41.4,30.27,West,274,0.0,0.0,98,0.06,-RA,,0.71,WeatherDisplay:10.37,2013-01-15 14:36:00,
2013-01-15 09:41:00,42.0,41.5,30.27,West,274,0.0,0.0,98,0.07,-RA,,0.72,WeatherDisplay:10.37,2013-01-15 14:41:00,
2013-01-15 09:46:00,42.2,41.7,30.27,West,274,0.0,0.0,98,0.07,-RA,,0.72,WeatherDisplay:10.37,2013-01-15 14:46:00,
2013-01-15 09:51:00,42.2,41.7,30.26,West,274,0.0,1.1,98,0.07,-RA,,0.72,WeatherDisplay:10.37,2013-01-15 14:51:00,
2013-01-15 09:56:00,42.2,41.7,30.26,West,274,0.0,0.0,98,0.07,-RA,,0.73,WeatherDisplay:10.37,2013-01-15 14:56:00,
2013-01-15 10:01:00,42.4,41.9,30.26,West,274,0.0,0.0,98,0.07,-RA,,0.73,WeatherDisplay:10.37,2013-01-15 15:01:00,
2013-01-15 10:06:00,42.7,42.2,30.26,West,274,0.0,0.0,98,0.07,-RA,,0.73,WeatherDisplay:10.37,2013-01-15 15:06:00,
2013-01-15 10:11:00,42.8,42.3,30.26,West,274,0.0,0.0,98,0.06,-RA,,0.73,WeatherDisplay:10.37,2013-01-15 15:11:00,
2013-01-15 10:16:00,42.8,42.3,30.26,West,274,0.0,0.0,98,0.06,-RA,,0.73,WeatherDisplay:10.37,2013-01-15 15:16:00,
2013-01-15 10:21:00,42.8,42.3,30.26,West,274,0.0,0.0,98,0.05,-RA,,0.73,WeatherDisplay:10.37,2013-01-15 15:21:00,
2013-01-15 10:26:00,42.8,42.0,30.26,West,274,0.0,0.0,97,0.04,-RA,,0.73,WeatherDisplay:10.37,2013-01-15 15:26:00,
2013-01-15 10:31:00,42.9,42.1,30.26,West,274,0.0,0.0,97,0.03,-RA,,0.73,WeatherDisplay:10.37,2013-01-15 15:31:00,
2013-01-15 10:36:00,42.9,42.1,30.26,West,274,0.0,0.0,97,0.02,-RA,,0.73,WeatherDisplay:10.37,2013-01-15 15:36:00,
2013-01-15 10:41:00,42.8,42.0,30.26,West,274,0.0,0.0,97,0.02,-RA,,0.74,WeatherDisplay:10.37,2013-01-15 15:41:00,
2013-01-15 10:46:00,42.9,42.1,30.25,West,274,0.0,0.0,97,0.02,-RA,,0.74,WeatherDisplay:10.37,2013-01-15 15:46:00,
2013-01-15 10:51:00,42.9,42.1,30.25,West,274,0.0,0.0,97,0.02,-RA,,0.74,WeatherDisplay:10.37,2013-01-15 15:51:00,
2013-01-15 10:56:00,43.0,42.2,30.25,West,274,0.0,0.0,97,0.02,-RA,,0.75,WeatherDisplay:10.37,2013-01-15 15:56:00,
2013-01-15 11:01:00,43.1,42.3,30.25,West,274,0.0,0.0,97,0.02,-RA,,0.75,WeatherDisplay:10.37,2013-01-15 16:01:00,
2013-01-15 11:06:00,43.1,42.3,30.25,West,274,0.0,0.0,97,0.02,-RA,,0.75,WeatherDisplay:10.37,2013-01-15 16:06:00,
2013-01-15 11:11:00,43.1,42.3,30.25,West,274,0.0,0.0,97,0.02,-RA,,0.75,WeatherDisplay:10.37,2013-01-15 16:11:00,
2013-01-15 11:16:00,43.2,42.4,30.25,West,274,0.0,0.0,97,0.02,-RA,,0.76,WeatherDisplay:10.37,2013-01-15 16:16:00,
2013-01-15 11:21:00,43.2,42.4,30.25,West,274,0.0,0.0,97,0.03,-RA,,0.76,WeatherDisplay:10.37,2013-01-15 16:21:00,
2013-01-15 11:26:00,43.2,42.4,30.25,West,274,0.0,0.0,97,0.03,-RA,,0.76,WeatherDisplay:10.37,2013-01-15 16:26:00,
2013-01-15 11:32:00,43.1,42.3,30.24,West,274,0.0,0.0,97,0.03,-RA,,0.76,WeatherDisplay:10.37,2013-01-15 16:32:00,
2013-01-15 11:38:00,43.1,42.3,30.24,West,274,0.0,0.0,97,0.02,-RA,,0.76,WeatherDisplay:10.37,2013-01-15 16:38:00,
2013-01-15 11:43:00,43.3,42.5,30.24,West,274,0.0,0.0,97,0.03,-RA,,0.77,WeatherDisplay:10.37,2013-01-15 16:43:00,
2013-01-15 11:48:00,43.3,42.5,30.24,West,274,0.0,1.1,97,0.03,-RA,,0.77,WeatherDisplay:10.37,2013-01-15 16:48:00,
2013-01-15 11:53:00,43.2,42.4,30.23,West,276,0.0,0.0,97,0.03,-RA,,0.78,WeatherDisplay:10.37,2013-01-15 16:53:00,
2013-01-15 11:58:00,43.2,42.4,30.23,West,276,0.0,0.0,97,0.03,-RA,,0.78,WeatherDisplay:10.37,2013-01-15 16:58:00,
2013-01-15 12:03:00,43.1,42.3,30.23,SSE,165,0.0,0.0,97,0.03,-RA,,0.78,WeatherDisplay:10.37,2013-01-15 17:03:00,
2013-01-15 12:08:00,43.1,42.3,30.23,South,190,0.0,0.0,97,0.04,-RA,,0.79,WeatherDisplay:10.37,2013-01-15 17:08:00,
2013-01-15 12:13:00,43.1,42.3,30.23,WSW,245,0.0,0.0,97,0.05,-RA,,0.80,WeatherDisplay:10.37,2013-01-15 17:13:00,
2013-01-15 12:18:00,43.1,42.3,30.22,WSW,245,0.0,0.0,97,0.04,-RA,,0.81,WeatherDisplay:10.37,2013-01-15 17:18:00,
2013-01-15 12:23:00,43.1,42.3,30.22,WSW,245,0.0,0.0,97,0.05,-RA,,0.81,WeatherDisplay:10.37,2013-01-15 17:23:00,
2013-01-15 12:28:00,43.2,42.4,30.22,SSW,212,0.0,1.0,97,0.06,-RA,,0.82,WeatherDisplay:10.37,2013-01-15 17:28:00,
2013-01-15 12:33:00,43.0,42.2,30.22,SSW,212,0.0,1.1,97,0.07,-RA,,0.83,WeatherDisplay:10.37,2013-01-15 17:33:00,
2013-01-15 12:38:00,43.0,42.2,30.21,WSW,250,0.0,0.0,97,0.07,-RA,,0.84,WeatherDisplay:10.37,2013-01-15 17:38:00,
2013-01-15 12:43:00,43.0,42.2,30.21,WSW,249,0.0,0.0,97,0.07,-RA,,0.84,WeatherDisplay:10.37,2013-01-15 17:43:00,
2013-01-15 12:48:00,43.1,42.3,30.21,WSW,248,0.0,0.0,97,0.08,-RA,,0.85,WeatherDisplay:10.37,2013-01-15 17:48:00,
2013-01-15 12:53:00,43.2,42.4,30.21,WSW,249,0.0,0.0,97,0.09,-RA,,0.86,WeatherDisplay:10.37,2013-01-15 17:53:00,
2013-01-15 12:58:00,43.3,42.5,30.20,WSW,249,0.0,0.0,97,0.09,-RA,,0.87,WeatherDisplay:10.37,2013-01-15 17:58:00,
2013-01-15 13:03:00,43.5,43.0,30.20,WSW,248,0.0,0.0,98,0.09,RA,,0.87,WeatherDisplay:10.37,2013-01-15 18:03:00,
2013-01-15 13:08:00,43.5,42.7,30.20,NNW,327,0.0,1.1,97,0.09,RA,,0.88,WeatherDisplay:10.37,2013-01-15 18:08:00,
2013-01-15 13:13:00,43.4,42.6,30.20,NNW,327,0.0,0.0,97,0.09,RA,,0.89,WeatherDisplay:10.37,2013-01-15 18:13:00,
2013-01-15 13:18:00,43.4,42.6,30.20,NNW,327,0.0,0.0,97,0.10,RA,,0.90,WeatherDisplay:10.37,2013-01-15 18:18:00,
2013-01-15 13:23:00,43.5,42.7,30.19,NNW,328,0.0,0.0,97,0.09,RA,,0.90,WeatherDisplay:10.37,2013-01-15 18:23:00,
2013-01-15 13:28:00,43.4,42.6,30.20,NNW,328,0.0,0.0,97,0.09,RA,,0.91,WeatherDisplay:10.37,2013-01-15 18:28:00,
2013-01-15 13:33:00,43.2,42.4,30.20,East,91,0.0,0.0,97,0.08,RA,,0.91,WeatherDisplay:10.37,2013-01-15 18:33:00,
2013-01-15 13:38:00,43.2,42.4,30.20,East,91,0.0,0.0,97,0.09,RA,,0.92,WeatherDisplay:10.37,2013-01-15 18:38:00,
2013-01-15 13:43:00,43.2,42.4,30.19,East,91,0.0,0.0,97,0.09,RA,,0.93,WeatherDisplay:10.37,2013-01-15 18:43:00,
2013-01-15 13:48:00,42.9,42.1,30.19,East,94,0.1,1.0,97,0.09,RA,,0.94,WeatherDisplay:10.37,2013-01-15 18:48:00,
2013-01-15 13:53:00,42.8,42.0,30.19,East,92,0.0,0.0,97,0.02,RA,,0.95,WeatherDisplay:10.37,2013-01-15 18:53:00,
2013-01-15 13:58:00,42.8,42.1,30.18,East,95,0.0,0.0,97,0.02,RA,,0.96,WeatherDisplay:10.37,2013-01-15 18:58:00,
2013-01-15 14:03:00,43.0,42.2,30.18,ESE,105,0.0,0.0,97,0.02,RA,,0.97,WeatherDisplay:10.37,2013-01-15 19:03:00,
2013-01-15 14:08:00,42.9,42.1,30.18,SSW,197,0.0,0.0,97,0.02,RA,,0.98,WeatherDisplay:10.37,2013-01-15 19:08:00,
2013-01-15 14:13:00,42.8,42.0,30.19,SSW,201,0.0,0.0,97,0.02,RA,,0.99,WeatherDisplay:10.37,2013-01-15 19:13:00,
2013-01-15 14:18:00,42.7,41.9,30.19,SW,234,0.0,0.0,97,0.01,RA,,0.99,WeatherDisplay:10.37,2013-01-15 19:18:00,
2013-01-15 14:23:00,42.5,41.7,30.18,SSW,200,0.0,0.0,97,0.02,-RA,,1.01,WeatherDisplay:10.37,2013-01-15 19:23:00,
2013-01-15 14:28:00,42.4,41.6,30.18,SE,143,0.0,0.0,97,0.03,-RA,,1.02,WeatherDisplay:10.37,2013-01-15 19:28:00,
2013-01-15 14:33:00,42.4,41.6,30.18,SE,137,0.0,0.0,97,0.02,-RA,,1.03,WeatherDisplay:10.37,2013-01-15 19:33:00,
2013-01-15 14:38:00,42.3,41.5,30.19,SSE,153,0.0,0.0,97,0.02,-RA,,1.04,WeatherDisplay:10.37,2013-01-15 19:38:00,
2013-01-15 14:43:00,42.2,41.4,30.18,SSW,200,0.0,0.0,97,0.01,-RA,,1.04,WeatherDisplay:10.37,2013-01-15 19:43:00,
2013-01-15 14:48:00,42.2,41.4,30.18,NNW,337,0.0,0.0,97,0.01,-RA,,1.05,WeatherDisplay:10.37,2013-01-15 19:48:00,
2013-01-15 14:53:00,42.2,41.4,30.19,NW,304,0.0,0.0,97,0.01,-RA,,1.05,WeatherDisplay:10.37,2013-01-15 19:53:00,
2013-01-15 14:58:00,42.0,41.2,30.19,West,272,0.0,0.0,97,0.01,-RA,,1.06,WeatherDisplay:10.37,2013-01-15 19:58:00,
2013-01-15 15:03:00,41.9,41.2,30.19,West,272,0.0,0.0,97,0.02,-RA,,1.07,WeatherDisplay:10.37,2013-01-15 20:03:00,
2013-01-15 15:09:00,41.9,41.1,30.20,West,273,0.0,0.0,97,0.10,-RA,,1.09,WeatherDisplay:10.37,2013-01-15 20:09:00,
2013-01-15 15:15:00,41.9,41.1,30.19,West,273,0.0,0.0,97,0.11,-RA,,1.10,WeatherDisplay:10.37,2013-01-15 20:15:00,
2013-01-15 15:20:00,41.7,40.9,30.19,West,273,0.0,0.0,97,0.12,-RA,,1.12,WeatherDisplay:10.37,2013-01-15 20:20:00,
2013-01-15 15:25:00,41.7,40.9,30.19,West,273,0.0,0.0,97,0.12,-RA,,1.13,WeatherDisplay:10.37,2013-01-15 20:25:00,
2013-01-15 15:30:00,41.7,40.9,30.19,WNW,290,0.0,0.0,97,0.13,-RA,,1.15,WeatherDisplay:10.37,2013-01-15 20:30:00,
2013-01-15 15:35:00,41.7,40.9,30.19,WNW,291,0.0,0.0,97,0.12,-RA,,1.16,WeatherDisplay:10.37,2013-01-15 20:35:00,
2013-01-15 15:40:00,41.5,40.7,30.19,WNW,290,0.0,0.0,97,0.12,-RA,,1.17,WeatherDisplay:10.37,2013-01-15 20:40:00,
2013-01-15 15:46:00,41.3,40.5,30.19,SE,126,0.0,0.0,97,0.14,-RA,,1.18,WeatherDisplay:10.37,2013-01-15 20:46:00,
2013-01-15 15:51:00,41.2,40.4,30.19,ESE,121,0.2,1.1,97,0.14,-RA,,1.19,WeatherDisplay:10.37,2013-01-15 20:51:00,
2013-01-15 15:56:00,41.1,40.3,30.19,East,83,0.1,1.1,97,0.15,-RA,,1.20,WeatherDisplay:10.37,2013-01-15 20:56:00,
2013-01-15 16:01:00,41.1,40.3,30.20,East,83,0.0,0.0,97,0.15,-RA,,1.21,WeatherDisplay:10.37,2013-01-15 21:01:00,
2013-01-15 16:06:00,41.2,40.4,30.19,East,83,0.0,0.0,97,0.14,-RA,,1.22,WeatherDisplay:10.37,2013-01-15 21:06:00,
2013-01-15 16:11:00,41.2,40.4,30.19,East,83,0.0,0.0,97,0.14,-RA,,1.23,WeatherDisplay:10.37,2013-01-15 21:11:00,
2013-01-15 16:16:00,41.1,40.3,30.20,ESE,103,0.0,1.1,97,0.13,-RA,,1.24,WeatherDisplay:10.37,2013-01-15 21:16:00,
2013-01-15 16:21:00,41.0,40.2,30.20,ESE,103,0.0,0.0,97,0.12,-RA,,1.25,WeatherDisplay:10.37,2013-01-15 21:21:00,
2013-01-15 16:27:00,41.0,40.2,30.19,ESE,103,0.0,0.0,97,0.12,-RA,,1.27,WeatherDisplay:10.37,2013-01-15 21:27:00,
2013-01-15 16:32:00,41.0,40.2,30.19,ESE,103,0.0,1.0,97,0.13,-RA,,1.28,WeatherDisplay:10.37,2013-01-15 21:32:00,
2013-01-15 16:37:00,40.9,40.1,30.19,ENE,65,0.1,1.0,97,0.14,-RA,,1.30,WeatherDisplay:10.37,2013-01-15 21:37:00,
2013-01-15 16:42:00,40.8,40.0,30.19,ENE,66,0.0,1.0,97,0.13,-RA,,1.31,WeatherDisplay:10.37,2013-01-15 21:42:00,
2013-01-15 16:47:00,40.9,40.1,30.20,SSE,168,0.0,0.0,97,0.13,RA,,1.32,WeatherDisplay:10.37,2013-01-15 21:47:00,
2013-01-15 16:53:00,40.9,40.1,30.20,South,191,0.0,0.0,97,0.14,RA,,1.33,WeatherDisplay:10.37,2013-01-15 21:53:00,
2013-01-15 16:58:00,40.8,40.0,30.20,South,191,0.0,0.0,97,0.15,RA,,1.35,WeatherDisplay:10.37,2013-01-15 21:58:00,
2013-01-15 17:03:00,40.7,39.9,30.19,South,191,0.0,0.0,97,0.14,-RA,,1.37,WeatherDisplay:10.37,2013-01-15 22:03:00,
2013-01-15 17:08:00,40.5,39.7,30.20,South,190,0.0,0.0,97,0.16,-RA,,1.38,WeatherDisplay:10.37,2013-01-15 22:08:00,
2013-01-15 17:13:00,40.5,39.7,30.20,South,190,0.0,0.0,97,0.16,-RA,,1.40,WeatherDisplay:10.37,2013-01-15 22:13:00,
2013-01-15 17:18:00,40.4,39.6,30.20,South,183,0.0,0.0,97,0.03,RA,,1.41,WeatherDisplay:10.37,2013-01-15 22:18:00,
2013-01-15 17:23:00,40.3,39.5,30.19,SSE,168,0.0,0.0,97,0.03,RA,,1.43,WeatherDisplay:10.37,2013-01-15 22:23:00,
2013-01-15 17:28:00,40.3,39.8,30.19,East,79,0.0,0.0,98,0.04,RA,,1.45,WeatherDisplay:10.37,2013-01-15 22:28:00,
2013-01-15 17:33:00,40.2,39.7,30.19,ENE,78,0.0,0.0,98,0.03,RA,,1.46,WeatherDisplay:10.37,2013-01-15 22:33:00,
2013-01-15 17:39:00,40.1,39.6,30.19,East,79,0.0,0.0,98,0.17,RA,,1.48,WeatherDisplay:10.37,2013-01-15 22:39:00,
2013-01-15 17:44:00,40.1,39.3,30.19,SE,129,0.3,1.1,97,0.18,RA,,1.49,WeatherDisplay:10.37,2013-01-15 22:44:00,
2013-01-15 17:49:00,39.9,39.1,30.19,NE,38,0.0,1.1,97,0.19,RA,,1.51,WeatherDisplay:10.37,2013-01-15 22:49:00,
2013-01-15 17:54:00,39.7,38.9,30.19,ENE,65,0.0,1.1,97,0.19,RA,,1.52,WeatherDisplay:10.37,2013-01-15 22:54:00,
2013-01-15 17:59:00,39.6,38.8,30.19,ENE,65,0.0,0.0,97,0.18,RA,,1.53,WeatherDisplay:10.37,2013-01-15 22:59:00,
2013-01-15 18:04:00,39.7,39.2,30.19,ENE,65,0.0,0.0,98,0.17,RA,,1.55,WeatherDisplay:10.37,2013-01-15 23:04:00,
2013-01-15 18:09:00,39.6,39.1,30.18,ENE,65,0.0,0.0,98,0.18,RA,,1.56,WeatherDisplay:10.37,2013-01-15 23:09:00,
2013-01-15 18:14:00,39.5,39.0,30.18,SSW,201,0.0,0.0,98,0.17,RA,,1.57,WeatherDisplay:10.37,2013-01-15 23:14:00,
2013-01-15 18:20:00,39.5,39.0,30.18,SSW,201,0.0,0.0,98,0.16,-RA,,1.58,WeatherDisplay:10.37,2013-01-15 23:20:00,
2013-01-15 18:25:00,39.4,38.9,30.18,SSW,201,0.0,0.0,98,0.15,-RA,,1.59,WeatherDisplay:10.37,2013-01-15 23:25:00,
2013-01-15 18:30:00,39.4,38.9,30.18,WSW,243,0.0,0.0,98,0.15,-RA,,1.60,WeatherDisplay:10.37,2013-01-15 23:30:00,
2013-01-15 18:36:00,39.5,39.0,30.18,WSW,243,0.0,0.0,98,0.14,-RA,,1.61,WeatherDisplay:10.37,2013-01-15 23:36:00,
2013-01-15 18:41:00,39.4,38.9,30.18,WSW,243,0.0,0.0,98,0.15,-RA,,1.63,WeatherDisplay:10.37,2013-01-15 23:41:00,
2013-01-15 18:46:00,39.4,38.9,30.17,WSW,243,0.0,0.0,98,0.15,-RA,,1.64,WeatherDisplay:10.37,2013-01-15 23:46:00,
2013-01-15 18:51:00,39.3,38.8,30.18,WSW,243,0.0,0.0,98,0.14,-RA,,1.65,WeatherDisplay:10.37,2013-01-15 23:51:00,
2013-01-15 18:56:00,39.3,38.8,30.17,WSW,243,0.0,0.0,98,0.15,-RA,,1.67,WeatherDisplay:10.37,2013-01-15 23:56:00,
2013-01-15 19:02:00,39.4,38.9,30.17,WSW,243,0.0,0.0,98,0.15,-RA,,1.69,WeatherDisplay:10.37,2013-01-16 00:02:00,
2013-01-15 19:07:00,39.3,38.8,30.17,WSW,243,0.0,0.0,98,0.15,RA,,1.71,WeatherDisplay:10.37,2013-01-16 00:07:00,
2013-01-15 19:13:00,39.3,38.8,30.17,WSW,243,0.0,0.0,98,0.16,RA,,1.73,WeatherDisplay:10.37,2013-01-16 00:13:00,
2013-01-15 19:18:00,39.2,38.7,30.18,WSW,243,0.0,0.0,98,0.17,RA,,1.75,WeatherDisplay:10.37,2013-01-16 00:18:00,
2013-01-15 19:23:00,39.2,38.7,30.19,West,262,0.2,1.1,98,0.17,RA,,1.77,WeatherDisplay:10.37,2013-01-16 00:23:00,
2013-01-15 19:28:00,39.3,38.8,30.21,WSW,245,0.0,1.1,98,0.20,RA,,1.80,WeatherDisplay:10.37,2013-01-16 00:28:00,
2013-01-15 19:33:00,39.2,38.7,30.20,South,189,0.0,0.0,98,0.23,RA,,1.85,WeatherDisplay:10.37,2013-01-16 00:33:00,
2013-01-15 19:38:00,39.2,38.7,30.18,South,187,0.0,0.0,98,0.25,RA,,1.88,WeatherDisplay:10.37,2013-01-16 00:38:00,
2013-01-15 19:43:00,39.1,38.6,30.18,South,187,0.0,0.0,98,0.28,RA,,1.91,WeatherDisplay:10.37,2013-01-16 00:43:00,
2013-01-15 19:48:00,39.1,38.6,30.18,ESE,105,0.0,1.1,98,0.28,RA,,1.93,WeatherDisplay:10.37,2013-01-16 00:48:00,
2013-01-15 19:53:00,39.2,38.7,30.18,West,274,0.0,1.1,98,0.28,RA,,1.94,WeatherDisplay:10.37,2013-01-16 00:53:00,
2013-01-15 19:58:00,39.1,38.6,30.17,ENE,75,0.0,0.0,98,0.28,RA,,1.96,WeatherDisplay:10.37,2013-01-16 00:58:00,
2013-01-15 20:03:00,39.2,38.7,30.17,ENE,73,0.0,0.0,98,0.28, +RA,,1.97,WeatherDisplay:10.37,2013-01-16 01:03:00,
2013-01-15 20:08:00,39.1,38.6,30.16,ESE,108,0.0,1.0,98,0.27, +RA,,1.99,WeatherDisplay:10.37,2013-01-16 01:08:00,
2013-01-15 20:13:00,39.1,38.6,30.15,ESE,108,0.0,0.0,98,0.27, +RA,,2.00,WeatherDisplay:10.37,2013-01-16 01:13:00,
2013-01-15 20:18:00,39.1,38.6,30.15,ESE,108,0.0,0.0,98,0.26,RA,,2.01,WeatherDisplay:10.37,2013-01-16 01:18:00,
2013-01-15 20:23:00,39.0,38.5,30.15,ESE,109,0.0,1.1,98,0.26,RA,,2.02,WeatherDisplay:10.37,2013-01-16 01:23:00,
2013-01-15 20:28:00,38.9,38.4,30.15,ESE,109,0.0,1.1,98,0.23,RA,,2.02,WeatherDisplay:10.37,2013-01-16 01:28:00,
2013-01-15 20:33:00,38.7,38.2,30.15,East,94,0.0,0.0,98,0.01,RA,,2.03,WeatherDisplay:10.37,2013-01-16 01:33:00,
2013-01-15 20:39:00,38.7,38.2,30.15,NE,53,0.0,0.0,98,0.17,RA,,2.05,WeatherDisplay:10.37,2013-01-16 01:39:00,
2013-01-15 20:44:00,38.7,38.2,30.15,NE,51,0.0,0.0,98,0.16,RA,,2.07,WeatherDisplay:10.37,2013-01-16 01:44:00,
2013-01-15 20:49:00,38.7,38.2,30.15,NE,51,0.0,0.0,98,0.15,RA,,2.09,WeatherDisplay:10.37,2013-01-16 01:49:00,
2013-01-15 20:54:00,38.6,38.1,30.14,NE,51,0.0,0.0,98,0.18,RA,,2.12,WeatherDisplay:10.37,2013-01-16 01:54:00,
2013-01-15 20:59:00,38.5,38.0,30.13,NE,51,0.0,0.0,98,0.19,RA,,2.16,WeatherDisplay:10.37,2013-01-16 01:59:00,
2013-01-15 21:04:00,38.4,37.9,30.13,NE,51,0.0,0.0,98,0.20,RA,,2.18,WeatherDisplay:10.37,2013-01-16 02:04:00,
2013-01-15 21:09:00,38.4,37.9,30.13,NE,52,0.2,1.0,98,0.19,RA,,2.18,WeatherDisplay:10.37,2013-01-16 02:09:00,
2013-01-15 21:14:00,38.3,37.8,30.13,NE,51,0.1,1.1,98,0.19,RA,,2.19,WeatherDisplay:10.37,2013-01-16 02:14:00,
2013-01-15 21:19:00,38.3,37.8,30.13,NE,51,0.0,0.0,98,0.18,RA,,2.19,WeatherDisplay:10.37,2013-01-16 02:19:00,
2013-01-15 21:24:00,38.3,37.8,30.14,NE,51,0.0,0.0,98,0.17,RA,,2.19,WeatherDisplay:10.37,2013-01-16 02:24:00,
2013-01-15 21:29:00,38.2,37.7,30.14,NE,53,0.0,1.0,98,0.17,RA,,2.19,WeatherDisplay:10.37,2013-01-16 02:29:00,
2013-01-15 21:34:00,38.1,37.6,30.14,NE,53,0.0,0.0,98,0.16,RA,,2.19,WeatherDisplay:10.37,2013-01-16 02:34:00,
2013-01-15 21:39:00,38.1,37.6,30.13,NE,52,0.0,0.0,98,0.15,RA,,2.20,WeatherDisplay:10.37,2013-01-16 02:39:00,
2013-01-15 21:44:00,38.2,37.7,30.13,NE,51,0.0,0.0,98,0.13,RA,,2.20,WeatherDisplay:10.37,2013-01-16 02:44:00,
2013-01-15 21:49:00,38.3,37.8,30.13,NE,53,0.0,0.0,98,0.12,-RA,,2.20,WeatherDisplay:10.37,2013-01-16 02:49:00,
2013-01-15 21:54:00,38.3,37.8,30.13,NW,309,0.0,0.0,98,0.08,-RA,,2.20,WeatherDisplay:10.37,2013-01-16 02:54:00,
2013-01-15 21:59:00,38.3,37.8,30.13,NW,309,0.0,0.0,98,0.06,-RA,,2.21,WeatherDisplay:10.37,2013-01-16 02:59:00,
2013-01-15 22:04:00,38.3,37.8,30.13,NW,309,0.0,0.0,98,0.04,-RA,,2.21,WeatherDisplay:10.37,2013-01-16 03:04:00,
2013-01-15 22:09:00,38.2,37.7,30.13,NW,310,0.0,0.0,98,0.03,-RA,,2.21,WeatherDisplay:10.37,2013-01-16 03:09:00,
2013-01-15 22:14:00,38.1,37.6,30.12,East,83,0.0,0.0,98,0.03,-RA,,2.22,WeatherDisplay:10.37,2013-01-16 03:14:00,
2013-01-15 22:19:00,38.0,37.5,30.12,East,83,0.0,0.0,98,0.03,-RA,,2.22,WeatherDisplay:10.37,2013-01-16 03:19:00,
2013-01-15 22:24:00,38.1,37.6,30.12,East,82,0.0,0.0,98,0.04,-RA,,2.23,WeatherDisplay:10.37,2013-01-16 03:24:00,
2013-01-15 22:29:00,38.1,37.6,30.12,East,82,0.0,0.0,98,0.04,-RA,,2.23,WeatherDisplay:10.37,2013-01-16 03:29:00,
2013-01-15 22:34:00,37.9,37.4,30.12,East,82,0.0,0.0,98,0.04,-RA,,2.23,WeatherDisplay:10.37,2013-01-16 03:34:00,
2013-01-15 22:39:00,37.9,37.4,30.11,East,82,0.0,0.0,98,0.04,-RA,,2.24,WeatherDisplay:10.37,2013-01-16 03:39:00,
2013-01-15 22:44:00,37.9,37.4,30.11,East,82,0.0,0.0,98,0.04,-RA,,2.24,WeatherDisplay:10.37,2013-01-16 03:44:00,
2013-01-15 22:50:00,37.9,37.4,30.12,ENE,77,0.0,0.0,98,0.04,-RA,,2.25,WeatherDisplay:10.37,2013-01-16 03:50:00,
2013-01-15 22:55:00,37.8,37.3,30.12,North,358,0.0,0.0,98,0.05,-RA,,2.25,WeatherDisplay:10.37,2013-01-16 03:55:00,
2013-01-15 23:00:00,37.8,37.3,30.12,North,356,0.0,0.0,98,0.05,-RA,,2.26,WeatherDisplay:10.37,2013-01-16 04:00:00,
2013-01-15 23:05:00,37.8,37.3,30.11,SSW,199,0.0,0.0,98,0.05,-RA,,2.26,WeatherDisplay:10.37,2013-01-16 04:05:00,
2013-01-15 23:10:00,37.8,37.3,30.12,SSW,198,0.0,0.0,98,0.06,-RA,,2.27,WeatherDisplay:10.37,2013-01-16 04:10:00,
2013-01-15 23:15:00,37.7,37.2,30.11,South,188,0.0,0.0,98,0.06,-RA,,2.28,WeatherDisplay:10.37,2013-01-16 04:15:00,
2013-01-15 23:20:00,37.7,37.2,30.11,SSE,150,0.0,0.0,98,0.06,-RA,,2.28,WeatherDisplay:10.37,2013-01-16 04:20:00,
2013-01-15 23:25:00,37.6,37.1,30.11,SSE,150,0.0,0.0,98,0.06,-RA,,2.29,WeatherDisplay:10.37,2013-01-16 04:25:00,
2013-01-15 23:30:00,37.5,37.0,30.11,SW,235,0.0,0.0,98,0.07,-RA,,2.30,WeatherDisplay:10.37,2013-01-16 04:30:00,
2013-01-15 23:35:00,37.5,37.0,30.11,SW,235,0.0,0.0,98,0.07,-RA,,2.30,WeatherDisplay:10.37,2013-01-16 04:35:00,
2013-01-15 23:41:00,37.4,36.9,30.11,WSW,256,0.0,0.0,98,0.06,-RA,,2.30,WeatherDisplay:10.37,2013-01-16 04:41:00,
2013-01-15 23:46:00,37.3,36.8,30.10,WSW,255,0.0,1.1,98,0.06,-RA,,2.30,WeatherDisplay:10.37,2013-01-16 04:46:00,
2013-01-15 23:51:00,37.2,36.7,30.10,WSW,238,0.1,1.0,98,0.06,-RA,,2.31,WeatherDisplay:10.37,2013-01-16 04:51:00,
2013-01-15 23:57:00,37.1,36.6,30.10,WSW,253,0.0,0.0,98,0.06,-RA,,2.31,WeatherDisplay:10.37,2013-01-16 04:57:00,